Regional Weather Roundup
Issued by NWS

Home | Current Version | Previous Version | Text Only | Print | Product List | Glossary Off
Versions: 1 2 3 4 5 6 7 8 9 10 11 12 13 14 15 16 17 18 19 20 21 22 23 24 25 26 27 28 29 30 31 32 33 34 35 36 37 38 39 40 41 42 43 44 45 46 47 48 49 50

000
ASUS43 KDMX 012207
RWRIA

WEATHER ROUNDUP FOR IOWA
NATIONAL WEATHER SERVICE DES MOINES IA
500 PM CDT TUE SEP 01 2015

NOTE: "FAIR" INDICATES FEW OR NO CLOUDS BELOW 12,000 FEET WITH NO
SIGNIFICANT WEATHER AND/OR OBSTRUCTIONS TO VISIBILITY.

* - THESE STATIONS ARE NOT NWS STATIONS...THUS NOT UNDER NWS
QUALITY CONTROL.  THEY ALSO DO NOT REPORT WEATHER SUCH
AS PRECIPITATION OR FOG.

IAZ001>003-012>014-020>022-031>034-043>046-012300-
   NORTHWEST IOWA

CITY           SKY/WX    TMP DP  RH WIND       PRES   REMARKS
CARROLL *      SUNNY     82  75  78 S7        29.93F HX  89
CHEROKEE *     CLOUDY    82  73  74 S9        29.89F HX  88
DENISON *      SUNNY     84  73  70 S15G24    29.91S HX  91
LE MARS *      SUNNY     82  73  74 S9G16     29.88F HX  88
ORANGE CITY *  SUNNY     82  72  69 S10       29.89F HX  87
SHELDON *      SUNNY     82  72  69 S10       29.88S HX  87
SIOUX CITY     MOSUNNY   86  73  65 SE13G20   29.87F HX  93
SPENCER        CLOUDY    84  70  62 S14       29.91S HX  88
STORM LAKE *   SUNNY     81  73  78 S8        29.93F HX  85
$$

IAZ055>058-069>071-079>083-090>094-012300-
   SOUTHWEST IOWA

CITY           SKY/WX    TMP DP  RH WIND       PRES   REMARKS
ATLANTIC *     SUNNY     86  73  66 S8G15     29.94S HX  93
AUDUBON *      SUNNY     84  75  74 S8        29.96S HX  92
CLARINDA *     SUNNY     90  72  55 S10G16    29.96S HX  96
COUNCIL BLFS * SUNNY     88  73  62 SE10      29.92F HX  96
CRESTON *      SUNNY     88  72  58 S15       29.98F HX  94
LAMONI         MOSUNNY   89  69  51 S13       29.98S HX  93
RED OAK *      SUNNY     86  72  62 S9G15     29.93F HX  92
SHENANDOAH *   SUNNY     88  72  58 S13G18    29.93F HX  94
$$

IAZ047>049-059>061-072>074-084-012300-
   CENTRAL IOWA

CITY           SKY/WX    TMP DP  RH WIND       PRES   REMARKS
AMES           PTSUNNY   86  73  65 S12       29.95S HX  93
ANKENY *       SUNNY     88  75  66 S8        29.94F HX  97
CHARITON *     SUNNY     88  68  51 S10       29.97F HX  91
DES MOINES     CLOUDY    89  71  55 S8        29.94F HX  95
GRINNELL*      MOSUNNY   88  72  58 S8        29.98S HX  94
KNOXVILLE *    SUNNY     86  70  58 S8G16     29.95F HX  90
MARSHALLTOWN   PTSUNNY   85  74  69 S9        29.95S HX  92
PELLA *        MOSUNNY   90  75  62 S9        29.97F HX 100
PERRY *          N/A     88  73  62 S7        29.94F HX  96
$$

IAZ004>006-015-016-023>025-035-036-012300-
   NORTH CENTRAL IOWA

CITY           SKY/WX    TMP DP  RH WIND       PRES   REMARKS
ALGONA *       SUNNY     81  72  74 S12G18    29.93R HX  84
CLARION *      SUNNY     84  72  65 SW10G17   29.94S HAZE    HX  89
ESTHERVILLE    CLOUDY    81  73  76 S9        29.91S HX  86
FORT DODGE *   PTSUNNY   82  72  69 S3        29.94S HX  87
MASON CITY     PTSUNNY   85  73  67 S12       29.94F HX  91
FOREST CITY *  SUNNY     81  70  69 S8        29.93S HX  84
IOWA FALLS *     N/A     86  73  66 S6        29.96S HX  93
$$

IAZ007>011-017>019-026>030-037>042-050>054-066-012300-
   NORTHEAST IOWA

CITY           SKY/WX    TMP DP  RH WIND       PRES   REMARKS
CEDAR RAPIDS   SUNNY     87  76  69 S12       29.96F HX  97
CHARLES CITY * SUNNY     84  77  79 SW9G16    29.95S HX  94
CLINTON *      SUNNY     88  72  58 SW10      30.00S HX  94
DECORAH *      MOSUNNY   84  73  70 SW9       29.94S HX  91
DUBUQUE        SUNNY     86  73  65 S14       29.97F HX  93
MONTICELLO *   SUNNY     88  75  66 SW12      29.96S HX  97
OELWEIN *      SUNNY     84  73  70 SW14      29.97R HX  91
WATERLOO       MOSUNNY   86  73  65 SW10      29.94S HX  93
$$

IAZ064-065-067-068-078-012300-
   EAST CENTRAL IOWA

CITY           SKY/WX    TMP DP  RH WIND       PRES   REMARKS
DAVENPORT      SUNNY     88  71  57 SW12      29.99S HX  94
IOWA CITY      SUNNY     89  71  55 S10       29.98S HX  95
MT. PLEASANT * SUNNY     93  64  38 S5        29.98F HX  95
MUSCATINE *    SUNNY     93  68  43 SW10      29.97S HX  97
QUAD CITIES    SUNNY     90  71  53 SW9       29.97F HX  96
$$

IAZ062-063-075>077-085>089-095>099-012300-
   SOUTHEAST IOWA

CITY           SKY/WX    TMP DP  RH WIND       PRES   REMARKS
BURLINGTON     MOSUNNY   90  70  51 SW8       29.99F HX  95
FAIRFIELD *    SUNNY     90  68  48 SW12      29.99S HX  93
FORT MADISON * MOSUNNY   88  72  58 S6        30.00F HX  94
KEOKUK *       SUNNY     91  68  46 S9G15     29.99S HX  95
OSKALOOSA *      N/A     88  68  51 SW7       29.98S HX  91
CENTERVILLE *  SUNNY     86  70  58 S10       30.00F HX  90
OTTUMWA        SUNNY     87  71  58 SW12      29.96F HX  93
WASHINGTON *     N/A    N/A N/A N/A MISG        N/A
$$

ABBREVIATIONS USED IN REMARKS
   TC - TEMPERATURES IN CELSIUS
  WCI - WIND CHILL INDEX
   HX - HEAT INDEX
  VSB - VISIBILITY
$$



USA.gov is the U.S. government's official web portal to all federal, state and local government web resources and services.